Location: Unspecified
(0.0000°N, 0.0000°E)
Time: 03:59:48
(UTC+00:00)

ISS - Pass Details

Date: 14 November 2019
Orbit: 412 x 421 km, 51.6° (Epoch: 12 November)

Event Time Altitude Azimuth Distance (km) Brightness Sun altitude
Rises 18:51:09 0° 222° (SW) 2,344 1.2 -15.8°
Reaches altitude 10° 18:53:16 10° 227° (SW) 1,482 0.1 -16.3°
Maximum altitude 18:56:31 55° 305° (NW) 504 -3.2 -17.1°
Enters shadow 18:57:56 29° 10° (N) 782 -2.7 -17.4°
